Weather Roundup
Issued by NWS

Home | Current Version | Previous Version | Graphics & Text | Print | Product List | Glossary Off
Versions: 1 2 3 4 5 6 7 8 9 10 11 12 13 14 15 16 17 18 19 20 21 22 23 24 25 26 27 28 29 30 31 32 33 34 35 36 37 38 39 40 41 42 43 44 45 46 47 48 49 50

082
NZUS93 KARX 220310
HRRWXR

CURRENT HOURLY OBSERVATIONS ACROSS
MUCH OF THE UPPER MISSISSIPPI VALLEY
NATIONAL WEATHER SERVICE LA CROSSE WI
1000 PM CDT THU MAY 21 2015


...SOUTHEAST MINNESOTA...


CITY           SKY/WX    TMP DP  RH WIND       PRES   REMARKS
ROCHESTER      FAIR      56  32  40 NW7       30.08R
ROCHESTER/MAYO FAIR      62  32  32 NW5       30.07R
WINONA         CLEAR     59  41  51 CALM      30.04R
AUSTIN         CLEAR     57  37  47 NW3       30.07R
ALBERT LEA     CLEAR     61  34  36 NW5       30.08R
DODGE CENTER   PTCLDY    57  36  44 W5        30.08R
PRESTON        CLEAR     57  36  44 NW6       30.07R
OWATONNA       CLEAR     57  32  38 CALM      30.08R
FARIBAULT      FAIR      55  37  50 CALM      30.08R
$$

...ELSEWHERE IN MINNESOTA...


CITY           SKY/WX    TMP DP  RH WIND       PRES   REMARKS
MINNEAPOLIS    CLEAR     63  31  30 NW5       30.07R
INTNL FALLS    CLEAR     43  35  73 CALM      30.08R
DULUTH         CLEAR     56  27  32 N5        30.07R
RED WING       CLEAR     57  32  38 N5        30.05R
REDWOOD FALLS  CLEAR     61  31  32 NW8       30.09R
MANKATO        FAIR      61  32  33 N6        30.08R
WORTHINGTON    CLEAR     54  28  37 CALM      30.13R
FAIRMONT       CLEAR     57  28  33 NW6       30.10R
$$

...SOUTHWEST WISCONSIN...


CITY           SKY/WX    TMP DP  RH WIND       PRES   REMARKS
LA CROSSE      CLEAR     59  44  57 N5        30.03R
PRAIRIE DU CHI CLEAR     55  39  55 CALM      30.03R
BOSCOBEL       CLEAR     56  39  53 CALM      30.02R
LONE ROCK      CLEAR     62  35  36 NW8       30.01R
PLATTEVILLE    CLEAR     59  36  41 W6        30.03R
FORT MC COY    CLEAR     51  41  69 CALM      30.04R
CAMP DOUGLAS   CLEAR     57  39  51 CALM      30.02R
VIROQUA        FAIR      59  39  46 W5        30.03R
WIS DELLS      CLEAR     59  34  39 NW3       30.00R
$$

...ELSEWHERE IN WISCONSIN...


CITY           SKY/WX    TMP DP  RH WIND       PRES   REMARKS
MILWAUKEE      LGT RAIN  55  42  61 NE13      30.00R
MADISON        PTCLDY    64  42  44 VRB5      29.99R
GREEN BAY      CLEAR     50  33  52 E8        30.05R
EAU CLAIRE     CLEAR     54  42  64 NW5       30.03R
BLACK RVR FLS  FAIR      50  35  58 CALM      30.02R
MEDFORD        CLEAR     47  33  59 CALM      30.04R
WAUSAU         CLEAR     53  30  41 CALM      30.02R
WIS RAPIDS     CLEAR     57  28  33 NE6       30.04R
MARSHFIELD     CLEAR     57  29  34 NE5       30.03R
RICE LAKE      CLEAR     55  36  48 W3        30.06R
$$

...NORTHEAST IOWA...


CITY           SKY/WX    TMP DP  RH WIND       PRES   REMARKS
DECORAH        CLEAR     61  32  33 W5        30.04R
MASON CITY     CLEAR     52  37  56 W8        30.09R
CHARLES CITY   CLEAR     61  34  36 NW6       30.07R
OELWEIN        CLEAR     57  36  44 NW7       30.06R
$$

...ELSEWHERE IN IOWA...


CITY           SKY/WX    TMP DP  RH WIND       PRES   REMARKS
DES MOINES     PTCLDY    63  41  44 W5        30.10R
IOWA CITY      CLEAR     55  45  68 W6        30.06R
FORT DODGE     CLEAR     52  39  62 CALM      30.11R
$$

...NORTHERN ILLINOIS...


CITY           SKY/WX    TMP DP  RH WIND       PRES   REMARKS
CHICAGO-OHARE  CLEAR     60  38  43 SW6       30.02R
CHICAGO-MIDWAY FAIR      62  38  40 SW7       30.03R
MOLINE         PTCLDY    63  42  46 SW14      30.03S
ROCKFORD       CLEAR     58  42  55 SW6       30.04R
PEORIA         CLEAR     58  45  62 SW7       30.10R
$$

NOTE: "FAIR" INDICATES FEW OR NO CLOUDS BELOW 12,000 FEET WITH NO
SIGNIFICANT WEATHER AND/OR OBSTRUCTIONS TO VISIBILITY. WIND
SPEEDS ARE IN MILES-PER-HOUR.



USA.gov is the U.S. government's official web portal to all federal, state and local government web resources and services.